Location: Caisita
(10.0382°N, 66.8007°W)
Time: 23:01:15
(UTC+00:00)

Daily predictions for brighter satellites

Satellite Brightness Start Highest point End
(mag) Time Altitude Azimuth Time Altitude Azimuth Time Altitude Azimuth
COSMOS 2455 2.9 22:20:49 10° SSW 22:26:49 88° ESE 22:32:49 10° NNE
ATLAS 2AS CENTAUR RB 2.2 22:27:47 10° W 22:30:32 62° S 22:39:43 10° ESE
Lacrosse 4 Rocket 3.0 22:28:29 10° NNE 22:30:50 15° ENE 22:33:08 10° ESE
Ariane 3 Deb 4.0 22:19:01 10° W 22:31:29 58° S 22:35:14 10° ESE
GPS 2-14 Rocket1 4.2 22:29:04 10° WNW 22:31:44 19° N 22:34:25 10° NE
Cosmos 2251 Rocket 4.4 22:28:15 10° NNE 22:32:46 28° ENE 22:37:16 10° SE
AQUARIUS 4.3 22:28:32 10° S 22:32:59 83° WSW 22:37:27 10° NNW
COSMO-SKYMED 1 3.4 22:29:16 10° N 22:33:29 54° WNW 22:37:43 10° SSW
Tiangong -0.7 22:32:51 10° N 22:35:17 20° NE 22:37:42 10° E
Cosmos 1452 Rocket 4.2 22:30:41 10° SSE 22:35:23 34° E 22:40:04 10° NE
DELTA 4 R/B 3.6 22:34:37 10° W 22:39:11 54° NNW 22:49:48 12° ENE
SKYMED 3 4.5 22:40:16 10° NNE 22:44:15 58° E 22:48:14 10° S
YAOGAN 1 4.1 22:43:56 10° ESE 22:46:28 15° ENE 22:47:50 13° NE
Cosmos 1023 Rocket 4.3 22:47:00 10° N 22:52:03 70° ENE 22:57:04 10° SSE
ATLAS 2A CENTAUR R/B 3.8 22:52:32 10° W 22:55:04 36° SSW 23:01:40 10° SE
CZ-4B R/B 4.2 22:52:20 10° SE 22:55:44 22° ENE 22:58:25 13° NNE
USA 308 2.7 22:57:45 10° NW 22:58:08 15° WNW 22:58:08 15° WNW
Meteor 1-25 Rocket 4.4 22:54:33 10° N 23:00:06 75° W 23:05:37 10° S
Cosmos 2266 Rocket 4.3 22:55:01 10° SSE 23:00:49 42° E 23:06:31 10° NNE
ADEOS 3.8 22:57:22 10° SSE 23:02:17 43° ENE 23:07:11 10° N
Cosmos 1331 Rocket 4.1 22:59:22 10° S 23:04:30 57° ESE 23:08:59 14° NNE
Cosmos 1553 Rocket 4.4 22:58:59 10° NNE 23:04:36 37° E 23:10:08 10° SSE
Cosmos 1766 Rocket 3.9 23:01:30 10° NNE 23:05:34 41° E 23:09:37 10° SSE
DELTA 2 DEB (DPAF) 3.9 23:03:26 10° NNE 23:07:41 71° ESE 23:11:55 10° S
CBERS 1 LM4 rocket 4.5 23:05:47 10° S 23:10:47 81° WSW 23:15:36 10° NNW
SME Rocket 4.2 23:08:00 10° SE 23:11:32 27° ENE 23:16:03 10° NNE
EXPRESS MD2 3.5 23:10:59 10° WSW 23:13:14 38° NW 23:14:33 24° N
Cosmos 2278 Rocket 2.8 23:12:18 10° S 23:17:26 36° ESE 23:19:04 30° ENE
Cosmos 1140 Rocket 4.1 23:14:43 10° NNW 23:19:43 57° WSW 23:24:43 10° S
Cosmos 1842 Rocket 4.3 23:17:36 10° SSW 23:21:46 51° W 23:25:57 10° N
deb Centaur AC-2 3.8 23:24:32 10° SW 23:29:01 80° SSE 23:29:54 55° ENE
Meteor 1-5 Rocket 4.3 23:24:22 10° N 23:30:15 89° W 23:36:14 10° S
Cosmos 1378 4.4 23:28:08 10° SSW 23:31:19 36° W 23:34:06 13° NNW
Meteor 1-10 Rocket 4.2 23:27:13 10° S 23:33:02 81° E 23:37:27 19° N
SL-08 ROCKET BODY 4.3 23:27:36 10° S 23:33:20 62° E 23:36:09 30° NNE
Cosmos 1271 Rocket 2.5 23:33:03 54° N 23:33:52 82° E 23:37:42 10° S
Cosmos 1603 3.7 23:32:22 10° NNW 23:37:58 79° WSW 23:43:33 10° SSE
Meteor 2-12 Rocket 4.5 23:33:50 10° S 23:39:53 78° W 23:45:37 11° N
Meteor 1-27 Rocket 3.8 23:36:14 10° S 23:42:01 55° E 23:42:50 51° ENE
Hubble Space Telescope 0.9 23:39:22 10° WNW 23:42:51 65° NW 23:42:51 65° NW
H-2A R/B 3.7 23:38:33 10° NNW 23:42:40 31° NNE 23:42:40 31° NNE
Cosmos 1417 Rocket 4.4 23:46:10 33° NNE 23:49:05 64° E 23:55:22 10° SSE
CZ-4B DEB 4.0 23:45:17 10° SSE 23:50:47 79° ENE 23:54:29 22° N
Centaur AC-112 3.8 23:44:29 10° WSW 23:54:45 39° NW 23:55:19 37° NNW
